Lid_Strength_Index
10 9 9 10 10 9 11 11 14 12 11 9 8 8 8 6 6 6 6 5 5 5 5 4 4 3 3 2 2 2 2 2 2 2 2 1 1 1 1 1 1 1 1 3
11 9 9 10 9 9 9 9 9 9 10 7 6 5 6 6 6 6 6 5 5 5 4 4 4 3 3 3 2 2 2 3 2 2 2 2 2 2 1 1 1 1 2 5
13 9 10 12 10 10 10 10 9 11 10 6 6 7 6 6 6 6 6 5 5 5 4 4 4 3 3 3 2 2 2 2 2 2 2 2 1 1 2 2 2 3 2 4
14 12 15 9 8 7 8 8 8 8 7 6 6 7 5 5 6 6 5 5 4 4 4 3 3 3 3 2 2 2 2 2 2 2 2 2 1 2 2 2 2 2 3 2
14 15 11 9 9 9 11 10 9 9 6 5 6 6 7 5 5 5 4 4 4 3 3 3 3 2 3 3 2 2 3 2 2 2 2 2 2 2 2 3 3 4 4 3
13 15 16 12 8 7 7 13 8 7 7 7 6 10 9 5 4 4 4 3 3 3 3 3 3 3 3 3 3 3 2 2 2 2 2 2 2 3 3 4 4 4 4 3
14 16 13 9 7 6 15 14 8 7 7 7 8 7 6 4 4 4 4 4 3 3 3 3 3 3 3 3 3 2 2 2 2 2 2 2 4 3 4 4 5 5 5 4
15 17 17 7 7 11 9 7 7 7 7 6 6 5 5 5 5 4 4 4 3 3 3 3 3 3 3 3 2 2 2 2 2 2 2 4 4 3 4 4 5 5 6 5
13 13 8 7 8 6 6 7 6 7 5 5 5 5 5 5 5 4 5 4 3 3 3 3 3 3 3 3 2 3 3 3 2 3 3 3 3 3 4 4 5 5 4 4
11 9 8 7 6 5 5 6 5 5 4 4 5 5 5 4 4 4 4 4 4 4 4 4 3 2 3 2 2 3 3 3 3 4 4 3 3 3 3 4 6 9 7 7
10 8 7 7 6 5 5 4 4 4 4 4 4 5 5 5 5 5 4 4 3 4 4 4 3 3 2 2 2 3 3 4 4 4 5 4 6 5 7 8 8 9 8 8
12 8 8 7 5 4 5 5 4 4 4 4 4 4 4 5 5 4 4 4 4 4 4 3 3 4 3 3 2 2 3 3 4 5 5 4 7 8 8 8 8 8 8 8
7 5 6 5 5 4 5 5 4 4 4 4 4 4 4 5 4 5 4 4 4 4 4 4 3 5 5 4 2 2 3 3 4 5 5 4 4 6 8 8 7 8 8 8
5 5 6 5 6 4 4 4 3 3 3 3 4 4 4 4 4 4 4 4 4 4 4 4 4 5 4 3 2 2 3 6 4 5 5 5 5 6 6 7 8 8 7 8
5 4 5 4 4 4 3 4 4 4 4 4 4 4 4 5 5 4 4 3 3 3 4 3 4 4 3 3 3 4 4 4 4 6 5 5 5 5 5 5 5 5 5 6
4 4 4 5 5 4 4 4 4 4 4 4 5 4 4 4 4 4 3 3 4 4 3 3 4 4 3 3 4 3 4 5 5 5 6 6 7 7 6 5 6 6 5 4
6 6 6 6 5 5 5 4 4 4 4 5 4 4 4 4 4 4 3 3 3 4 3 3 4 3 3 4 5 6 6 6 5 6 6 7 6 5 6 7 7 6 5 4
4 4 4 4 5 5 5 4 4 4 4 4 4 4 4 4 5 4 4 3 3 4 3 3 3 4 5 5 6 5 6 7 7 6 7 7 6 6 6 6 5 5 5 4
3 4 4 4 4 4 4 4 4 4 3 4 4 4 4 4 4 4 4 5 6 6 6 5 4 4 5 4 6 7 7 7 7 7 7 6 7 6 6 5 5 5 4 3
4 3 3 4 3 4 4 4 4 4 4 3 4 4 4 4 5 5 6 6 7 6 6 5 5 6 6 5 5 7 6 7 7 6 6 6 6 6 5 5 5 4 4 3
4 4 3 4 4 3 3 3 4 4 4 3 4 4 4 4 5 6 6 7 6 5 5 5 5 5 5 5 5 6 7 7 6 6 6 6 6 5 4 4 3 3 2 2
4 4 4 4 4 4 3 3 3 4 4 4 3 4 4 5 5 5 5 6 6 6 4 4 4 4 5 3 5 6 6 5 6 6 7 5 5 4 3 3 3 3 2 2
4 4 4 4 4 4 4 4 3 3 4 4 4 3 4 4 4 5 7 6 6 5 4 3 3 4 4 4 5 4 3 5 5 5 5 5 3 3 3 3 3 2 2 3
4 4 4 4 3 4 5 4 3 3 3 3 3 3 3 3 3 3 4 5 5 5 4 3 2 3 3 3 4 3 4 5 5 4 4 5 4 3 3 2 3 2 1 3
4 4 4 4 4 4 4 4 4 3 3 3 3 2 3 2 3 2 3 3 5 4 3 4 3 3 4 4 3 4 5 5 4 3 4 4 4 2 2 2 2 2 3 1
4 4 4 4 4 4 3 4 4 4 3 4 3 2 2 2 2 2 2 3 3 4 3 4 4 4 4 4 3 4 5 5 5 4 4 3 3 3 2 2 2 2 2 2
4 6 4 4 3 3 3 4 4 4 5 4 3 3 2 2 2 2 4 4 4 4 2 3 3 4 4 4 3 4 5 4 5 4 4 4 3 2 2 1 2 2 2 3